Flag for Germany Weather past 2 weeks in Gera, Thuringia, Germany

Now
52 °F

Overcast.


Feels Like: 52 °F
Forecast: 44 / 67 °F
Wind: 2 mph from Northwest

Location: Gera-Leumnitz


UV Index: 3 (Moderate)

Visibility: 6 mi


Pressure: 29.97 "Hg

Humidity: 86%

Dew point: 47 °F

Location of GeraLocation

Historic Weather in Gera

°F

Gera temperature yesterday

Maximum temperature yesterday: 48 °F (at 2:00 PM)
Minimum temperature yesterday: 37 °F (at 11:00 PM)
Average temperature yesterday: 41 °F

Past Weeks' High & Low Weather Summary

 TemperatureHumidityPressure
High69 °F (Apr 7, 5:00 PM)99% (Apr 19, 7:00 AM)30.46 "Hg (Apr 19, 7:00 AM)
Low30 °F (Apr 17, 5:00 AM)35% (Apr 17, 1:00 PM)29.79 "Hg (Apr 4, 4:00 PM)
Average48 °F75%30.06 "Hg
* Reported Apr 4 4:00 PM — Apr 19 4:00 PM, Gera, Weather by CustomWeather, © 2014

Note: Actual official high and low records may vary slightly from our data, if they occured in-between our weather recording intervals... More about our weather records

Advertising

Historic Weather Conditions — Data for Previous 24 hours

 ConditionsComfort  
Time TempWeatherWind HumidityBarometerVisibility
4:00 PM
Apr 19
52 °FOvercast.2 mph86%29.97 "Hg6 mi
3:00 PM48 °FLow clouds.2 mph89%30.01 "Hg5 mi
2:00 PM46 °FLow clouds.3 mph90%30.03 "Hg6 mi
1:00 PM44 °FLow clouds.5 mph94%30.05 "Hg6 mi
12:00 PM42 °FFog.3 mph99%30.08 "Hg4 mi
11:00 AM40 °FFog.2 mph99%30.09 "Hg1 mi
10:00 AM38 °FFog.3 mph98%30.09 "Hg1 mi
9:00 AM37 °FFog.3 mph98%30.09 "Hg0 mi
8:00 AM36 °FFog.2 mph98%30.08 "Hg0 mi
7:00 AM34 °FFog.2 mph99%30.06 "Hg0 mi
6:00 AM35 °FFog.1 mph98%30.04 "Hg0 mi
5:00 AM32 °FLow clouds.1 mph98%30.05 "Hg0 mi
4:00 AM31 °FClear.1 mph96%30.05 "Hg1 mi
3:00 AM35 °FClear.1 mph98%30.02 "Hg1 mi
2:00 AM36 °FFog.1 mph98%30.02 "Hg2 mi
1:00 AM35 °FFog.2 mph97%30.01 "Hg1 mi
12:00 AM36 °FClear.1 mph97%29.99 "Hg4 mi
11:00 PM
Apr 18
37 °FPassing clouds.2 mph97%29.98 "Hg10 mi
10:00 PM37 °FFog.2 mph97%29.97 "Hg4 mi
9:00 PM38 °FPassing clouds.2 mph96%29.95 "Hg12 mi
8:00 PM38 °FPassing clouds.3 mph94%29.92 "Hg12 mi
7:00 PM42 °FPartly sunny.1 mph88%29.91 "Hg16 mi
6:00 PM40 °FSprinkles. Low clouds.2 mph90%29.90 "Hg9 mi
5:00 PM45 °FLow clouds.1 mph84%29.87 "Hg16 mi
4:00 PM47 °FOvercast.3 mph81%29.86 "Hg12 mi
Weather by CustomWeather, © 2014

See weather overview